Time,TemperatureF,DewpointF,PressureIn,WindDirection,WindDirectionDegrees,WindSpeedMPH,WindSpeedGustMPH,Humidity,HourlyPrecipIn,Conditions,Clouds,dailyrainin,SoftwareType,DateUTC
2013-09-22 00:01:00,54.9,54.9,29.77,WNW,300,0.0,1.0,100,0.00,,,0.00,Wunderground v.1.15,2013-09-22 04:01:00,
2013-09-22 00:06:00,54.9,54.9,29.77,WNW,290,2.0,2.0,100,0.00,,,0.00,Wunderground v.1.15,2013-09-22 04:06:00,
2013-09-22 00:07:00,54.9,54.9,29.77,NNE,19,0.0,2.0,100,0.00,,,0.00,Wunderground v.1.15,2013-09-22 04:07:00,
2013-09-22 00:09:00,54.9,54.9,29.77,NW,312,1.0,2.0,100,0.00,,,0.00,Wunderground v.1.15,2013-09-22 04:09:00,
2013-09-22 00:14:00,54.7,54.7,29.77,NNW,329,1.0,1.0,100,0.00,,,0.00,Wunderground v.1.15,2013-09-22 04:14:00,
2013-09-22 00:15:00,54.7,54.7,29.77,NNW,329,0.0,1.0,100,0.00,,,0.00,Wunderground v.1.15,2013-09-22 04:15:00,
2013-09-22 00:21:00,54.6,54.6,29.77,NNW,332,0.0,0.0,100,0.00,,,0.00,Wunderground v.1.15,2013-09-22 04:21:00,
2013-09-22 00:26:00,54.6,54.6,29.77,North,6,2.0,2.0,100,0.00,,,0.00,Wunderground v.1.15,2013-09-22 04:26:00,
2013-09-22 00:32:00,54.6,54.6,29.77,North,352,0.0,3.0,100,0.00,,,0.00,Wunderground v.1.15,2013-09-22 04:32:00,
2013-09-22 00:37:00,54.6,54.6,29.76,North,6,0.0,3.0,100,0.00,,,0.00,Wunderground v.1.15,2013-09-22 04:37:00,
2013-09-22 00:43:00,54.3,54.3,29.76,South,183,1.0,1.0,100,0.00,,,0.00,Wunderground v.1.15,2013-09-22 04:43:00,
2013-09-22 00:49:00,54.0,53.7,29.76,WNW,297,0.0,1.0,99,0.00,,,0.00,Wunderground v.1.15,2013-09-22 04:49:00,
2013-09-22 00:54:00,53.7,53.4,29.77,NE,43,0.0,1.0,99,0.00,,,0.00,Wunderground v.1.15,2013-09-22 04:54:00,
2013-09-22 01:00:00,53.4,53.1,29.76,North,11,0.0,1.0,99,0.00,,,0.01,Wunderground v.1.15,2013-09-22 05:00:00,
2013-09-22 01:06:00,53.2,53.2,29.76,North,352,0.0,1.0,100,0.00,,,0.01,Wunderground v.1.15,2013-09-22 05:06:00,
2013-09-22 01:11:00,53.0,53.0,29.76,North,352,0.0,1.0,100,0.00,,,0.01,Wunderground v.1.15,2013-09-22 05:11:00,
2013-09-22 01:17:00,53.0,53.0,29.77,North,352,0.0,1.0,100,0.00,,,0.01,Wunderground v.1.15,2013-09-22 05:17:00,
2013-09-22 01:22:00,53.1,53.1,29.77,North,352,0.0,1.0,100,0.00,,,0.01,Wunderground v.1.15,2013-09-22 05:22:00,
2013-09-22 01:28:00,53.3,53.3,29.77,North,354,0.0,1.0,100,0.00,,,0.01,Wunderground v.1.15,2013-09-22 05:28:00,
2013-09-22 01:34:00,53.5,53.5,29.77,NW,322,0.0,1.0,100,0.00,,,0.01,Wunderground v.1.15,2013-09-22 05:34:00,
2013-09-22 01:40:00,53.4,53.4,29.77,NNW,340,0.0,1.0,100,0.00,,,0.01,Wunderground v.1.15,2013-09-22 05:40:00,
2013-09-22 01:45:00,53.2,53.2,29.77,NNW,347,0.0,1.0,100,0.00,,,0.01,Wunderground v.1.15,2013-09-22 05:45:00,
2013-09-22 01:51:00,52.9,52.9,29.77,NNW,338,1.0,1.0,100,0.00,,,0.01,Wunderground v.1.15,2013-09-22 05:51:00,
2013-09-22 01:56:00,52.8,52.8,29.77,North,6,0.0,2.0,100,0.00,,,0.01,Wunderground v.1.15,2013-09-22 05:56:00,
2013-09-22 02:01:00,52.6,52.6,29.77,NW,314,2.0,2.0,100,0.00,,,0.01,Wunderground v.1.15,2013-09-22 06:01:00,
2013-09-22 02:06:00,52.6,52.6,29.77,NW,309,1.0,4.0,100,0.00,,,0.01,Wunderground v.1.15,2013-09-22 06:06:00,
2013-09-22 02:11:00,52.4,52.4,29.77,NNW,344,1.0,1.0,100,0.00,,,0.01,Wunderground v.1.15,2013-09-22 06:11:00,
2013-09-22 02:16:00,52.3,52.3,29.78,NW,311,1.0,1.0,100,0.00,,,0.01,Wunderground v.1.15,2013-09-22 06:16:00,
2013-09-22 02:21:00,52.1,52.1,29.78,NW,322,0.0,0.0,100,0.00,,,0.01,Wunderground v.1.15,2013-09-22 06:21:00,
2013-09-22 02:26:00,51.9,51.9,29.78,NNW,328,1.0,1.0,100,0.00,,,0.01,Wunderground v.1.15,2013-09-22 06:26:00,
2013-09-22 02:31:00,51.8,51.8,29.78,NNW,328,0.0,0.0,100,0.00,,,0.01,Wunderground v.1.15,2013-09-22 06:31:00,
2013-09-22 02:36:00,51.4,51.4,29.78,NNW,328,0.0,0.0,100,0.00,,,0.01,Wunderground v.1.15,2013-09-22 06:36:00,
2013-09-22 02:41:00,51.3,51.3,29.78,NNW,328,0.0,0.0,100,0.00,,,0.01,Wunderground v.1.15,2013-09-22 06:41:00,
2013-09-22 02:46:00,51.5,51.5,29.78,NNW,329,0.0,1.0,100,0.00,,,0.01,Wunderground v.1.15,2013-09-22 06:46:00,
2013-09-22 02:51:00,51.8,51.8,29.78,NE,49,0.0,0.0,100,0.00,,,0.01,Wunderground v.1.15,2013-09-22 06:51:00,
2013-09-22 02:56:00,52.0,52.0,29.78,WNW,298,0.0,3.0,100,0.00,,,0.01,Wunderground v.1.15,2013-09-22 06:56:00,
2013-09-22 03:01:00,52.2,52.2,29.78,NNW,330,1.0,2.0,100,0.00,,,0.01,Wunderground v.1.15,2013-09-22 07:01:00,
2013-09-22 03:06:00,52.3,52.3,29.78,North,356,1.0,2.0,100,0.00,,,0.01,Wunderground v.1.15,2013-09-22 07:06:00,
2013-09-22 03:11:00,52.3,52.3,29.77,WNW,290,1.0,1.0,100,0.00,,,0.01,Wunderground v.1.15,2013-09-22 07:11:00,
2013-09-22 03:16:00,52.4,52.4,29.77,North,352,1.0,2.0,100,0.00,,,0.01,Wunderground v.1.15,2013-09-22 07:16:00,
2013-09-22 03:21:00,52.5,52.5,29.77,North,352,0.0,0.0,100,0.00,,,0.01,Wunderground v.1.15,2013-09-22 07:21:00,
2013-09-22 03:26:00,52.5,52.5,29.77,North,352,1.0,2.0,100,0.00,,,0.01,Wunderground v.1.15,2013-09-22 07:26:00,
2013-09-22 03:31:00,52.5,52.5,29.77,NNE,22,1.0,2.0,100,0.00,,,0.01,Wunderground v.1.15,2013-09-22 07:31:00,
2013-09-22 03:36:00,52.5,52.5,29.77,NNW,345,2.0,3.0,100,0.00,,,0.01,Wunderground v.1.15,2013-09-22 07:36:00,
2013-09-22 03:41:00,52.4,52.4,29.77,NNE,30,0.0,1.0,100,0.00,,,0.01,Wunderground v.1.15,2013-09-22 07:41:00,
2013-09-22 03:46:00,52.4,52.4,29.77,NNW,328,3.0,3.0,100,0.00,,,0.01,Wunderground v.1.15,2013-09-22 07:46:00,
2013-09-22 03:51:00,52.5,52.5,29.78,NW,323,1.0,2.0,100,0.00,,,0.01,Wunderground v.1.15,2013-09-22 07:51:00,
2013-09-22 03:56:00,52.5,52.5,29.78,NNW,336,0.0,2.0,100,0.00,,,0.01,Wunderground v.1.15,2013-09-22 07:56:00,
2013-09-22 04:01:00,52.5,52.5,29.78,NNW,330,1.0,4.0,100,0.00,,,0.01,Wunderground v.1.15,2013-09-22 08:01:00,
2013-09-22 04:06:00,52.5,52.5,29.78,North,356,0.0,4.0,100,0.00,,,0.01,Wunderground v.1.15,2013-09-22 08:06:00,
2013-09-22 04:11:00,52.6,52.6,29.78,NE,43,0.0,1.0,100,0.00,,,0.01,Wunderground v.1.15,2013-09-22 08:11:00,
2013-09-22 04:16:00,52.6,52.6,29.78,NNW,342,0.0,1.0,100,0.00,,,0.01,Wunderground v.1.15,2013-09-22 08:16:00,
2013-09-22 04:21:00,52.6,52.6,29.78,NNW,347,1.0,1.0,100,0.00,,,0.01,Wunderground v.1.15,2013-09-22 08:21:00,
2013-09-22 04:26:00,52.6,52.6,29.78,WNW,297,0.0,2.0,100,0.00,,,0.01,Wunderground v.1.15,2013-09-22 08:26:00,
2013-09-22 04:31:00,52.6,52.6,29.78,WNW,295,0.0,0.0,100,0.00,,,0.01,Wunderground v.1.15,2013-09-22 08:31:00,
2013-09-22 04:36:00,52.6,52.6,29.78,WNW,297,0.0,1.0,100,0.00,,,0.01,Wunderground v.1.15,2013-09-22 08:36:00,
2013-09-22 04:41:00,52.6,52.6,29.79,NNW,330,0.0,1.0,100,0.00,,,0.01,Wunderground v.1.15,2013-09-22 08:41:00,
2013-09-22 04:46:00,52.6,52.6,29.79,NW,305,0.0,1.0,100,0.00,,,0.01,Wunderground v.1.15,2013-09-22 08:46:00,
2013-09-22 04:51:00,52.6,52.6,29.79,NNE,23,0.0,2.0,100,0.00,,,0.01,Wunderground v.1.15,2013-09-22 08:51:00,
2013-09-22 04:56:00,52.6,52.6,29.79,WNW,300,0.0,2.0,100,0.00,,,0.01,Wunderground v.1.15,2013-09-22 08:56:00,
2013-09-22 05:01:00,52.6,52.6,29.79,WNW,301,0.0,1.0,100,0.00,,,0.01,Wunderground v.1.15,2013-09-22 09:01:00,
2013-09-22 05:06:00,52.6,52.6,29.79,WNW,300,0.0,1.0,100,0.00,,,0.01,Wunderground v.1.15,2013-09-22 09:06:00,
2013-09-22 05:11:00,52.6,52.6,29.79,WSW,254,0.0,1.0,100,0.00,,,0.01,Wunderground v.1.15,2013-09-22 09:11:00,
2013-09-22 05:16:00,52.6,52.6,29.79,WSW,257,0.0,2.0,100,0.00,,,0.01,Wunderground v.1.15,2013-09-22 09:16:00,
2013-09-22 05:21:00,52.7,52.7,29.79,NW,322,0.0,1.0,100,0.00,,,0.01,Wunderground v.1.15,2013-09-22 09:21:00,
2013-09-22 05:26:00,52.8,52.8,29.79,WSW,257,0.0,2.0,100,0.00,,,0.01,Wunderground v.1.15,2013-09-22 09:26:00,
2013-09-22 05:31:00,52.8,52.8,29.79,SW,233,2.0,2.0,100,0.00,,,0.01,Wunderground v.1.15,2013-09-22 09:31:00,
2013-09-22 05:36:00,52.8,52.8,29.79,WSW,250,0.0,3.0,100,0.00,,,0.01,Wunderground v.1.15,2013-09-22 09:36:00,
2013-09-22 05:41:00,52.8,52.8,29.79,WSW,240,0.0,2.0,100,0.00,,,0.01,Wunderground v.1.15,2013-09-22 09:41:00,
2013-09-22 05:46:00,52.8,52.8,29.79,NW,304,2.0,2.0,100,0.00,,,0.01,Wunderground v.1.15,2013-09-22 09:46:00,
2013-09-22 05:51:00,52.8,52.8,29.79,West,267,1.0,1.0,100,0.00,,,0.01,Wunderground v.1.15,2013-09-22 09:51:00,
2013-09-22 05:56:00,52.8,52.8,29.79,SSW,200,0.0,2.0,100,0.00,,,0.01,Wunderground v.1.15,2013-09-22 09:56:00,
2013-09-22 06:01:00,52.8,52.8,29.79,WSW,256,0.0,1.0,100,0.00,,,0.01,Wunderground v.1.15,2013-09-22 10:01:00,
2013-09-22 06:06:00,52.8,52.8,29.80,WSW,238,1.0,3.0,100,0.00,,,0.01,Wunderground v.1.15,2013-09-22 10:06:00,
2013-09-22 06:11:00,52.8,52.8,29.80,SW,232,0.0,2.0,100,0.00,,,0.01,Wunderground v.1.15,2013-09-22 10:11:00,
2013-09-22 06:16:00,52.8,52.8,29.80,WSW,256,1.0,2.0,100,0.00,,,0.01,Wunderground v.1.15,2013-09-22 10:16:00,
2013-09-22 06:21:00,52.8,52.8,29.80,SW,221,0.0,1.0,100,0.00,,,0.01,Wunderground v.1.15,2013-09-22 10:21:00,
2013-09-22 06:26:00,52.8,52.8,29.80,West,264,0.0,3.0,100,0.00,,,0.01,Wunderground v.1.15,2013-09-22 10:26:00,
2013-09-22 06:31:00,52.9,52.9,29.80,WSW,250,0.0,0.0,100,0.00,,,0.01,Wunderground v.1.15,2013-09-22 10:31:00,
2013-09-22 06:36:00,52.9,52.9,29.80,WNW,290,0.0,3.0,100,0.00,,,0.01,Wunderground v.1.15,2013-09-22 10:36:00,
2013-09-22 06:41:00,53.0,53.0,29.81,NW,318,0.0,1.0,100,0.00,,,0.01,Wunderground v.1.15,2013-09-22 10:41:00,
2013-09-22 06:46:00,53.0,53.0,29.81,NNW,336,0.0,5.0,100,0.00,,,0.01,Wunderground v.1.15,2013-09-22 10:46:00,
2013-09-22 06:51:00,53.1,53.1,29.81,WNW,300,3.0,3.0,100,0.00,,,0.01,Wunderground v.1.15,2013-09-22 10:51:00,
2013-09-22 06:56:00,53.1,53.1,29.81,SW,226,3.0,4.0,100,0.00,,,0.01,Wunderground v.1.15,2013-09-22 10:56:00,
2013-09-22 07:01:00,53.1,53.1,29.82,West,271,1.0,3.0,100,0.00,,,0.01,Wunderground v.1.15,2013-09-22 11:01:00,
2013-09-22 07:06:00,53.1,53.1,29.82,West,271,2.0,3.0,100,0.00,,,0.01,Wunderground v.1.15,2013-09-22 11:06:00,
2013-09-22 07:11:00,53.1,53.1,29.82,East,82,1.0,1.0,100,0.00,,,0.01,Wunderground v.1.15,2013-09-22 11:11:00,
2013-09-22 07:16:00,53.1,53.1,29.82,ENE,68,0.0,2.0,100,0.00,,,0.01,Wunderground v.1.15,2013-09-22 11:16:00,
2013-09-22 07:21:00,53.0,53.0,29.82,NNW,346,1.0,3.0,100,0.00,,,0.01,Wunderground v.1.15,2013-09-22 11:21:00,
2013-09-22 07:26:00,52.9,52.9,29.82,NNW,330,1.0,4.0,100,0.00,,,0.01,Wunderground v.1.15,2013-09-22 11:26:00,
2013-09-22 07:31:00,52.9,52.9,29.83,SW,225,2.0,5.0,100,0.00,,,0.01,Wunderground v.1.15,2013-09-22 11:31:00,
2013-09-22 07:36:00,52.9,52.9,29.83,WSW,243,1.0,5.0,100,0.00,,,0.01,Wunderground v.1.15,2013-09-22 11:36:00,
2013-09-22 07:41:00,52.8,52.8,29.83,North,4,1.0,2.0,100,0.00,,,0.01,Wunderground v.1.15,2013-09-22 11:41:00,
2013-09-22 07:46:00,52.8,52.8,29.83,SW,232,0.0,3.0,100,0.00,,,0.01,Wunderground v.1.15,2013-09-22 11:46:00,
2013-09-22 07:51:00,52.7,52.7,29.83,SW,228,1.0,4.0,100,0.00,,,0.01,Wunderground v.1.15,2013-09-22 11:51:00,
2013-09-22 07:56:00,52.6,52.6,29.83,WNW,284,0.0,4.0,100,0.00,,,0.01,Wunderground v.1.15,2013-09-22 11:56:00,
2013-09-22 08:01:00,52.7,52.7,29.83,WSW,253,0.0,3.0,100,0.00,,,0.01,Wunderground v.1.15,2013-09-22 12:01:00,
2013-09-22 08:06:00,52.7,52.7,29.83,WNW,295,1.0,3.0,100,0.00,,,0.01,Wunderground v.1.15,2013-09-22 12:06:00,
2013-09-22 08:11:00,52.8,52.8,29.83,NNE,30,2.0,2.0,100,0.00,,,0.01,Wunderground v.1.15,2013-09-22 12:11:00,
2013-09-22 08:16:00,52.7,52.7,29.84,NW,320,1.0,6.0,100,0.00,,,0.01,Wunderground v.1.15,2013-09-22 12:16:00,
2013-09-22 08:21:00,52.8,52.8,29.83,WNW,300,0.0,3.0,100,0.00,,,0.01,Wunderground v.1.15,2013-09-22 12:21:00,
2013-09-22 08:26:00,52.8,52.8,29.83,North,8,1.0,3.0,100,0.00,,,0.01,Wunderground v.1.15,2013-09-22 12:26:00,
2013-09-22 08:31:00,52.9,52.9,29.83,NE,54,0.0,1.0,100,0.00,,,0.01,Wunderground v.1.15,2013-09-22 12:31:00,
2013-09-22 08:36:00,53.2,53.2,29.84,NNW,338,0.0,1.0,100,0.00,,,0.01,Wunderground v.1.15,2013-09-22 12:36:00,
2013-09-22 08:41:00,53.2,53.2,29.84,West,260,1.0,2.0,100,0.00,,,0.01,Wunderground v.1.15,2013-09-22 12:41:00,
2013-09-22 08:46:00,53.4,53.4,29.84,NE,34,1.0,2.0,100,0.00,,,0.01,Wunderground v.1.15,2013-09-22 12:46:00,
2013-09-22 08:51:00,53.4,53.1,29.84,NNW,330,3.0,4.0,99,0.00,,,0.01,Wunderground v.1.15,2013-09-22 12:51:00,
2013-09-22 08:56:00,53.5,53.5,29.84,NNW,332,2.0,4.0,100,0.00,,,0.01,Wunderground v.1.15,2013-09-22 12:56:00,
2013-09-22 09:01:00,53.6,53.3,29.84,NNW,328,1.0,2.0,99,0.00,,,0.01,Wunderground v.1.15,2013-09-22 13:01:00,
2013-09-22 09:06:00,53.7,53.4,29.84,NE,47,0.0,3.0,99,0.00,,,0.01,Wunderground v.1.15,2013-09-22 13:06:00,
2013-09-22 09:11:00,54.0,53.7,29.85,South,174,1.0,2.0,99,0.00,,,0.01,Wunderground v.1.15,2013-09-22 13:11:00,
2013-09-22 09:16:00,54.0,53.7,29.85,NW,318,0.0,3.0,99,0.00,,,0.01,Wunderground v.1.15,2013-09-22 13:16:00,
2013-09-22 09:21:00,53.8,53.2,29.85,WNW,294,0.0,3.0,98,0.00,,,0.01,Wunderground v.1.15,2013-09-22 13:21:00,
2013-09-22 09:26:00,53.7,53.1,29.85,NNE,25,1.0,3.0,98,0.00,,,0.01,Wunderground v.1.15,2013-09-22 13:26:00,
2013-09-22 09:31:00,53.4,52.8,29.85,NW,305,0.0,4.0,98,0.00,,,0.01,Wunderground v.1.15,2013-09-22 13:31:00,
2013-09-22 09:36:00,53.5,52.9,29.86,NW,324,2.0,4.0,98,0.00,,,0.01,Wunderground v.1.15,2013-09-22 13:36:00,
2013-09-22 09:41:00,54.3,53.7,29.86,SW,226,0.0,3.0,98,0.00,,,0.01,Wunderground v.1.15,2013-09-22 13:41:00,
2013-09-22 09:46:00,54.9,54.1,29.86,NNW,332,3.0,6.0,97,0.00,,,0.01,Wunderground v.1.15,2013-09-22 13:46:00,
2013-09-22 09:51:00,55.4,54.0,29.85,WNW,302,2.0,4.0,95,0.00,,,0.01,Wunderground v.1.15,2013-09-22 13:51:00,
2013-09-22 09:56:00,56.1,53.8,29.86,WNW,294,2.0,5.0,92,0.00,,,0.01,Wunderground v.1.15,2013-09-22 13:56:00,
2013-09-22 10:01:00,56.1,53.8,29.86,WNW,287,3.0,3.0,92,0.00,,,0.01,Wunderground v.1.15,2013-09-22 14:01:00,
2013-09-22 10:06:00,56.5,53.9,29.86,NNW,329,2.0,4.0,91,0.00,,,0.01,Wunderground v.1.15,2013-09-22 14:06:00,
2013-09-22 10:11:00,56.9,53.7,29.86,SSW,209,3.0,5.0,89,0.00,,,0.01,Wunderground v.1.15,2013-09-22 14:11:00,
2013-09-22 10:16:00,56.9,53.4,29.86,NW,306,2.0,5.0,88,0.00,,,0.01,Wunderground v.1.15,2013-09-22 14:16:00,
2013-09-22 10:21:00,57.0,53.2,29.87,SW,229,1.0,4.0,87,0.00,,,0.01,Wunderground v.1.15,2013-09-22 14:21:00,
2013-09-22 10:26:00,56.7,52.6,29.87,WNW,287,3.0,5.0,86,0.00,,,0.01,Wunderground v.1.15,2013-09-22 14:26:00,
2013-09-22 10:31:00,56.7,53.2,29.87,WSW,250,1.0,3.0,88,0.00,,,0.01,Wunderground v.1.15,2013-09-22 14:31:00,
2013-09-22 10:36:00,56.5,52.4,29.87,WNW,293,0.0,6.0,86,0.00,,,0.01,Wunderground v.1.15,2013-09-22 14:36:00,
2013-09-22 10:41:00,56.6,53.1,29.87,NNW,333,0.0,2.0,88,0.00,,,0.01,Wunderground v.1.15,2013-09-22 14:41:00,
2013-09-22 10:46:00,57.3,53.5,29.87,West,263,0.0,4.0,87,0.00,,,0.01,Wunderground v.1.15,2013-09-22 14:46:00,
2013-09-22 10:51:00,57.6,53.1,29.87,North,356,0.0,2.0,85,0.00,,,0.01,Wunderground v.1.15,2013-09-22 14:51:00,
2013-09-22 10:56:00,58.0,52.9,29.87,NNW,335,2.0,4.0,83,0.00,,,0.01,Wunderground v.1.15,2013-09-22 14:56:00,
2013-09-22 11:01:00,58.2,53.1,29.87,NW,315,0.0,4.0,83,0.00,,,0.01,Wunderground v.1.15,2013-09-22 15:01:00,
2013-09-22 11:06:00,58.3,51.8,29.88,West,269,2.0,6.0,79,0.00,,,0.01,Wunderground v.1.15,2013-09-22 15:06:00,
2013-09-22 11:11:00,58.6,52.8,29.88,NNW,329,1.0,4.0,81,0.00,,,0.01,Wunderground v.1.15,2013-09-22 15:11:00,
2013-09-22 11:16:00,58.3,52.5,29.88,West,269,2.0,6.0,81,0.00,,,0.01,Wunderground v.1.15,2013-09-22 15:16:00,
2013-09-22 11:21:00,58.2,53.1,29.88,WSW,238,2.0,4.0,83,0.00,,,0.01,Wunderground v.1.15,2013-09-22 15:21:00,
2013-09-22 11:26:00,58.2,53.4,29.88,North,9,4.0,4.0,84,0.00,,,0.01,Wunderground v.1.15,2013-09-22 15:26:00,
2013-09-22 11:31:00,58.0,52.2,29.87,WNW,300,3.0,5.0,81,0.00,,,0.01,Wunderground v.1.15,2013-09-22 15:31:00,
2013-09-22 11:36:00,57.9,53.4,29.87,NNE,18,0.0,5.0,85,0.00,,,0.01,Wunderground v.1.15,2013-09-22 15:36:00,
2013-09-22 11:41:00,58.9,54.1,29.87,West,259,3.0,3.0,84,0.00,,,0.01,Wunderground v.1.15,2013-09-22 15:41:00,
2013-09-22 11:46:00,59.5,52.6,29.87,SW,235,5.0,8.0,78,0.00,,,0.01,Wunderground v.1.15,2013-09-22 15:46:00,
2013-09-22 11:51:00,59.1,51.5,29.87,ENE,64,3.0,10.0,76,0.00,,,0.01,Wunderground v.1.15,2013-09-22 15:51:00,
2013-09-22 11:56:00,58.8,52.6,29.87,North,1,2.0,10.0,80,0.00,,,0.01,Wunderground v.1.15,2013-09-22 15:56:00,
2013-09-22 12:01:00,59.6,52.4,29.87,NW,317,1.0,5.0,77,0.00,,,0.01,Wunderground v.1.15,2013-09-22 16:01:00,
2013-09-22 12:06:00,59.9,52.7,29.88,NNE,15,6.0,7.0,77,0.00,,,0.01,Wunderground v.1.15,2013-09-22 16:06:00,
2013-09-22 12:11:00,60.0,52.8,29.88,NW,309,3.0,6.0,77,0.00,,,0.01,Wunderground v.1.15,2013-09-22 16:11:00,
2013-09-22 12:16:00,60.5,53.3,29.88,NW,309,2.0,8.0,77,0.00,,,0.01,Wunderground v.1.15,2013-09-22 16:16:00,
2013-09-22 12:21:00,61.1,52.4,29.88,WSW,250,2.0,6.0,73,0.00,,,0.01,Wunderground v.1.15,2013-09-22 16:21:00,
2013-09-22 12:26:00,61.5,52.8,29.88,NW,311,9.0,9.0,73,0.00,,,0.01,Wunderground v.1.15,2013-09-22 16:26:00,
2013-09-22 12:31:00,60.5,50.3,29.88,WNW,297,2.0,7.0,69,0.00,,,0.01,Wunderground v.1.15,2013-09-22 16:31:00,
2013-09-22 12:36:00,60.5,51.4,29.88,NE,37,2.0,9.0,72,0.00,,,0.01,Wunderground v.1.15,2013-09-22 16:36:00,
2013-09-22 12:41:00,61.1,51.2,29.88,NNW,348,4.0,4.0,70,0.00,,,0.01,Wunderground v.1.15,2013-09-22 16:41:00,
2013-09-22 12:46:00,61.5,51.6,29.88,WSW,245,4.0,5.0,70,0.00,,,0.01,Wunderground v.1.15,2013-09-22 16:46:00,
2013-09-22 12:51:00,61.2,52.1,29.88,West,264,5.0,5.0,72,0.00,,,0.01,Wunderground v.1.15,2013-09-22 16:51:00,
2013-09-22 12:56:00,61.0,51.5,29.88,NNE,13,4.0,7.0,71,0.00,,,0.01,Wunderground v.1.15,2013-09-22 16:56:00,
2013-09-22 13:01:00,60.2,51.5,29.88,WNW,297,3.0,5.0,73,0.00,,,0.01,Wunderground v.1.15,2013-09-22 17:01:00,
2013-09-22 13:06:00,59.8,51.9,29.88,NNW,347,0.0,5.0,75,0.00,,,0.01,Wunderground v.1.15,2013-09-22 17:06:00,
2013-09-22 13:11:00,60.6,53.3,29.88,NNW,339,7.0,9.0,77,0.00,,,0.01,Wunderground v.1.15,2013-09-22 17:11:00,
2013-09-22 13:16:00,61.3,52.2,29.88,NW,315,2.0,9.0,72,0.00,,,0.01,Wunderground v.1.15,2013-09-22 17:16:00,
2013-09-22 13:21:00,62.1,53.3,29.88,NW,316,2.0,4.0,73,0.00,,,0.01,Wunderground v.1.15,2013-09-22 17:21:00,
2013-09-22 13:26:00,62.0,50.9,29.88,NNE,19,3.0,9.0,67,0.00,,,0.01,Wunderground v.1.15,2013-09-22 17:26:00,
2013-09-22 13:31:00,61.3,51.4,29.88,NW,311,1.0,4.0,70,0.00,,,0.01,Wunderground v.1.15,2013-09-22 17:31:00,
2013-09-22 13:36:00,60.9,51.8,29.88,NNW,336,5.0,5.0,72,0.00,,,0.01,Wunderground v.1.15,2013-09-22 17:36:00,
2013-09-22 13:41:00,61.5,52.8,29.87,NNW,344,3.0,6.0,73,0.00,,,0.01,Wunderground v.1.15,2013-09-22 17:41:00,
2013-09-22 13:46:00,61.7,52.2,29.87,NNE,33,5.0,6.0,71,0.00,,,0.01,Wunderground v.1.15,2013-09-22 17:46:00,
2013-09-22 13:51:00,60.8,51.0,29.87,SW,225,1.0,3.0,70,0.00,,,0.01,Wunderground v.1.15,2013-09-22 17:51:00,
2013-09-22 13:56:00,61.4,51.5,29.87,North,358,3.0,5.0,70,0.00,,,0.01,Wunderground v.1.15,2013-09-22 17:56:00,
2013-09-22 14:01:00,61.7,51.8,29.87,SSE,161,2.0,4.0,70,0.00,,,0.01,Wunderground v.1.15,2013-09-22 18:01:00,
2013-09-22 14:06:00,61.5,52.4,29.87,NW,326,7.0,7.0,72,0.00,,,0.01,Wunderground v.1.15,2013-09-22 18:06:00,
2013-09-22 14:11:00,60.7,52.4,29.87,NE,56,4.0,4.0,74,0.00,,,0.01,Wunderground v.1.15,2013-09-22 18:11:00,
2013-09-22 14:16:00,60.5,51.0,29.87,NW,326,5.0,9.0,71,0.00,,,0.01,Wunderground v.1.15,2013-09-22 18:16:00,
2013-09-22 14:21:00,60.5,50.3,29.86,NE,47,1.0,6.0,69,0.00,,,0.01,Wunderground v.1.15,2013-09-22 18:21:00,
2013-09-22 14:26:00,60.8,51.0,29.86,NNW,329,2.0,7.0,70,0.00,,,0.01,Wunderground v.1.15,2013-09-22 18:26:00,
2013-09-22 14:31:00,61.6,50.9,29.86,WSW,250,1.0,5.0,68,0.00,,,0.01,Wunderground v.1.15,2013-09-22 18:31:00,
2013-09-22 14:36:00,62.0,51.3,29.86,WNW,287,3.0,7.0,68,0.00,,,0.01,Wunderground v.1.15,2013-09-22 18:36:00,
2013-09-22 14:41:00,61.8,51.9,29.86,West,273,3.0,8.0,70,0.00,,,0.01,Wunderground v.1.15,2013-09-22 18:41:00,
2013-09-22 14:46:00,62.5,53.7,29.86,NNW,333,1.0,8.0,73,0.00,,,0.01,Wunderground v.1.15,2013-09-22 18:46:00,
2013-09-22 14:51:00,63.2,53.6,29.86,NW,326,1.0,4.0,71,0.00,,,0.01,Wunderground v.1.15,2013-09-22 18:51:00,
2013-09-22 14:56:00,63.5,53.9,29.86,NNE,30,2.0,5.0,71,0.00,,,0.01,Wunderground v.1.15,2013-09-22 18:56:00,
2013-09-22 15:01:00,63.2,52.5,29.86,WNW,284,3.0,6.0,68,0.00,,,0.01,Wunderground v.1.15,2013-09-22 19:01:00,
2013-09-22 15:06:00,63.8,52.2,29.86,North,1,6.0,6.0,66,0.00,,,0.01,Wunderground v.1.15,2013-09-22 19:06:00,
2013-09-22 15:11:00,63.7,51.7,29.85,NNE,12,2.0,6.0,65,0.00,,,0.01,Wunderground v.1.15,2013-09-22 19:11:00,
2013-09-22 15:16:00,63.5,52.3,29.85,NE,48,3.0,7.0,67,0.00,,,0.01,Wunderground v.1.15,2013-09-22 19:16:00,
2013-09-22 15:21:00,62.7,50.8,29.85,WNW,283,2.0,5.0,65,0.00,,,0.01,Wunderground v.1.15,2013-09-22 19:21:00,
2013-09-22 15:26:00,62.8,52.5,29.85,West,270,5.0,7.0,69,0.00,,,0.01,Wunderground v.1.15,2013-09-22 19:26:00,
2013-09-22 15:31:00,62.7,52.0,29.85,NE,39,3.0,6.0,68,0.00,,,0.01,Wunderground v.1.15,2013-09-22 19:31:00,
2013-09-22 15:36:00,62.5,52.2,29.86,WNW,300,5.0,6.0,69,0.00,,,0.01,Wunderground v.1.15,2013-09-22 19:36:00,
2013-09-22 15:41:00,62.2,53.4,29.86,NE,50,2.0,3.0,73,0.00,,,0.01,Wunderground v.1.15,2013-09-22 19:41:00,
2013-09-22 15:46:00,62.5,52.2,29.86,WNW,287,0.0,7.0,69,0.00,,,0.01,Wunderground v.1.15,2013-09-22 19:46:00,
2013-09-22 15:51:00,63.2,52.5,29.86,WSW,253,3.0,6.0,68,0.00,,,0.01,Wunderground v.1.15,2013-09-22 19:51:00,
2013-09-22 15:56:00,63.3,52.2,29.86,West,273,3.0,7.0,67,0.00,,,0.01,Wunderground v.1.15,2013-09-22 19:56:00,
2013-09-22 16:01:00,63.2,52.1,29.86,North,359,3.0,6.0,67,0.00,,,0.01,Wunderground v.1.15,2013-09-22 20:01:00,
2013-09-22 16:06:00,62.8,52.9,29.86,NNE,12,1.0,7.0,70,0.00,,,0.01,Wunderground v.1.15,2013-09-22 20:06:00,
2013-09-22 16:11:00,62.4,53.3,29.86,NNW,333,1.0,3.0,72,0.00,,,0.01,Wunderground v.1.15,2013-09-22 20:11:00,
2013-09-22 16:16:00,62.0,52.5,29.86,WNW,302,1.0,9.0,71,0.00,,,0.01,Wunderground v.1.15,2013-09-22 20:16:00,
2013-09-22 16:21:00,61.3,51.8,29.86,NW,319,2.0,4.0,71,0.00,,,0.01,Wunderground v.1.15,2013-09-22 20:21:00,
2013-09-22 16:26:00,60.9,52.2,29.86,NW,323,3.0,4.0,73,0.00,,,0.01,Wunderground v.1.15,2013-09-22 20:26:00,
2013-09-22 16:31:00,61.3,51.8,29.85,West,269,3.0,8.0,71,0.00,,,0.01,Wunderground v.1.15,2013-09-22 20:31:00,
2013-09-22 16:36:00,61.9,52.0,29.85,WNW,293,1.0,8.0,70,0.00,,,0.01,Wunderground v.1.15,2013-09-22 20:36:00,
2013-09-22 16:41:00,62.4,52.1,29.86,NNE,33,3.0,4.0,69,0.00,,,0.01,Wunderground v.1.15,2013-09-22 20:41:00,
2013-09-22 16:46:00,62.2,51.9,29.86,NW,323,3.0,8.0,69,0.00,,,0.01,Wunderground v.1.15,2013-09-22 20:46:00,
2013-09-22 16:51:00,61.2,52.1,29.86,NW,323,4.0,6.0,72,0.00,,,0.01,Wunderground v.1.15,2013-09-22 20:51:00,
2013-09-22 16:56:00,60.6,51.9,29.86,NNE,17,5.0,6.0,73,0.00,,,0.01,Wunderground v.1.15,2013-09-22 20:56:00,
2013-09-22 17:01:00,60.2,52.2,29.86,WNW,303,1.0,6.0,75,0.00,,,0.01,Wunderground v.1.15,2013-09-22 21:01:00,
2013-09-22 17:06:00,60.1,51.8,29.86,NNE,32,2.0,6.0,74,0.00,,,0.01,Wunderground v.1.15,2013-09-22 21:06:00,
2013-09-22 17:12:00,59.9,52.3,29.86,WNW,283,2.0,7.0,76,0.00,,,0.01,Wunderground v.1.15,2013-09-22 21:12:00,
2013-09-22 17:17:00,59.8,51.9,29.86,NNW,341,4.0,7.0,75,0.00,,,0.01,Wunderground v.1.15,2013-09-22 21:17:00,
2013-09-22 17:22:00,59.9,52.7,29.86,NW,311,1.0,3.0,77,0.00,,,0.01,Wunderground v.1.15,2013-09-22 21:22:00,
2013-09-22 17:27:00,59.8,52.6,29.86,NNW,328,1.0,5.0,77,0.00,,,0.01,Wunderground v.1.15,2013-09-22 21:27:00,
2013-09-22 17:32:00,59.6,52.4,29.86,West,280,2.0,5.0,77,0.00,,,0.01,Wunderground v.1.15,2013-09-22 21:32:00,
2013-09-22 17:37:00,59.3,52.4,29.87,NW,310,1.0,6.0,78,0.00,,,0.01,Wunderground v.1.15,2013-09-22 21:37:00,
2013-09-22 17:42:00,59.2,52.7,29.87,WNW,295,0.0,3.0,79,0.00,,,0.01,Wunderground v.1.15,2013-09-22 21:42:00,
2013-09-22 17:47:00,59.0,52.8,29.86,NNW,332,1.0,4.0,80,0.00,,,0.01,Wunderground v.1.15,2013-09-22 21:47:00,
2013-09-22 17:52:00,58.8,52.6,29.87,NNE,13,0.0,2.0,80,0.00,,,0.01,Wunderground v.1.15,2013-09-22 21:52:00,
2013-09-22 17:57:00,58.8,52.6,29.87,NNW,332,0.0,4.0,80,0.00,,,0.01,Wunderground v.1.15,2013-09-22 21:57:00,
2013-09-22 18:02:00,58.8,52.6,29.87,SE,146,0.0,2.0,80,0.00,,,0.01,Wunderground v.1.15,2013-09-22 22:02:00,
2013-09-22 18:07:00,58.6,52.1,29.87,NE,54,0.0,5.0,79,0.00,,,0.01,Wunderground v.1.15,2013-09-22 22:07:00,
2013-09-22 18:12:00,58.4,52.6,29.87,NE,56,0.0,2.0,81,0.00,,,0.01,Wunderground v.1.15,2013-09-22 22:12:00,
2013-09-22 18:17:00,58.2,52.7,29.87,NW,315,0.0,5.0,82,0.00,,,0.01,Wunderground v.1.15,2013-09-22 22:17:00,
2013-09-22 18:22:00,58.0,52.9,29.87,NNW,328,3.0,3.0,83,0.00,,,0.01,Wunderground v.1.15,2013-09-22 22:22:00,
2013-09-22 18:27:00,57.7,52.6,29.87,NW,316,2.0,6.0,83,0.00,,,0.01,Wunderground v.1.15,2013-09-22 22:27:00,
2013-09-22 18:32:00,57.4,52.6,29.87,WNW,294,0.0,4.0,84,0.00,,,0.01,Wunderground v.1.15,2013-09-22 22:32:00,
2013-09-22 18:37:00,57.1,52.6,29.87,North,354,0.0,4.0,85,0.00,,,0.01,Wunderground v.1.15,2013-09-22 22:37:00,
2013-09-22 18:42:00,56.7,52.6,29.87,NNW,347,0.0,3.0,86,0.00,,,0.01,Wunderground v.1.15,2013-09-22 22:42:00,
2013-09-22 18:47:00,56.2,52.1,29.87,North,6,0.0,5.0,86,0.00,,,0.01,Wunderground v.1.15,2013-09-22 22:47:00,
2013-09-22 18:52:00,55.9,52.1,29.87,WNW,300,0.0,3.0,87,0.00,,,0.01,Wunderground v.1.15,2013-09-22 22:52:00,
2013-09-22 18:57:00,55.5,51.7,29.88,NNW,346,0.0,4.0,87,0.00,,,0.01,Wunderground v.1.15,2013-09-22 22:57:00,
2013-09-22 19:02:00,55.2,51.7,29.88,NNW,346,1.0,3.0,88,0.00,,,0.01,Wunderground v.1.15,2013-09-22 23:02:00,
2013-09-22 19:07:00,54.9,51.7,29.88,NNE,27,1.0,5.0,89,0.00,,,0.01,Wunderground v.1.15,2013-09-22 23:07:00,
2013-09-22 19:12:00,54.7,51.5,29.88,NNW,342,4.0,5.0,89,0.00,,,0.01,Wunderground v.1.15,2013-09-22 23:12:00,
2013-09-22 19:17:00,54.5,51.6,29.88,NNW,327,2.0,6.0,90,0.00,,,0.01,Wunderground v.1.15,2013-09-22 23:17:00,
2013-09-22 19:22:00,54.3,51.7,29.88,NNE,25,1.0,2.0,91,0.00,,,0.01,Wunderground v.1.15,2013-09-22 23:22:00,
2013-09-22 19:27:00,54.3,51.7,29.88,NNE,20,2.0,5.0,91,0.00,,,0.01,Wunderground v.1.15,2013-09-22 23:27:00,
2013-09-22 19:32:00,54.2,51.6,29.88,NNW,335,1.0,4.0,91,0.00,,,0.01,Wunderground v.1.15,2013-09-22 23:32:00,
2013-09-22 19:37:00,54.2,51.6,29.88,North,5,2.0,6.0,91,0.00,,,0.01,Wunderground v.1.15,2013-09-22 23:37:00,
2013-09-22 19:42:00,54.1,51.5,29.88,NE,36,1.0,1.0,91,0.00,,,0.01,Wunderground v.1.15,2013-09-22 23:42:00,
2013-09-22 19:47:00,54.0,51.7,29.89,NNE,13,1.0,3.0,92,0.00,,,0.01,Wunderground v.1.15,2013-09-22 23:47:00,
2013-09-22 19:52:00,53.9,51.6,29.89,NW,316,1.0,3.0,92,0.00,,,0.01,Wunderground v.1.15,2013-09-22 23:52:00,
2013-09-22 19:57:00,53.9,51.6,29.90,West,273,0.0,3.0,92,0.00,,,0.01,Wunderground v.1.15,2013-09-22 23:57:00,
2013-09-22 20:02:00,53.8,51.5,29.90,North,350,0.0,2.0,92,0.00,,,0.01,Wunderground v.1.15,2013-09-23 00:02:00,
2013-09-22 20:07:00,53.6,51.3,29.90,NW,316,0.0,2.0,92,0.00,,,0.01,Wunderground v.1.15,2013-09-23 00:07:00,
2013-09-22 20:12:00,53.4,51.1,29.90,North,5,4.0,4.0,92,0.00,,,0.01,Wunderground v.1.15,2013-09-23 00:12:00,
2013-09-22 20:17:00,53.1,50.8,29.90,NW,326,1.0,4.0,92,0.00,,,0.01,Wunderground v.1.15,2013-09-23 00:17:00,
2013-09-22 20:22:00,52.8,50.8,29.90,North,360,0.0,2.0,93,0.00,,,0.01,Wunderground v.1.15,2013-09-23 00:22:00,
2013-09-22 20:27:00,52.5,50.5,29.91,North,358,1.0,3.0,93,0.00,,,0.01,Wunderground v.1.15,2013-09-23 00:27:00,
2013-09-22 20:32:00,52.3,50.3,29.91,North,7,1.0,2.0,93,0.00,,,0.01,Wunderground v.1.15,2013-09-23 00:32:00,
2013-09-22 20:37:00,52.1,50.4,29.91,NNW,328,3.0,4.0,94,0.00,,,0.01,Wunderground v.1.15,2013-09-23 00:37:00,
2013-09-22 20:42:00,52.0,50.3,29.91,North,354,1.0,2.0,94,0.00,,,0.01,Wunderground v.1.15,2013-09-23 00:42:00,
2013-09-22 20:47:00,51.8,50.1,29.91,North,354,1.0,4.0,94,0.00,,,0.01,Wunderground v.1.15,2013-09-23 00:47:00,
2013-09-22 20:52:00,51.7,50.0,29.91,NNW,328,0.0,2.0,94,0.00,,,0.01,Wunderground v.1.15,2013-09-23 00:52:00,
2013-09-22 20:57:00,51.7,50.0,29.92,North,356,1.0,3.0,94,0.00,,,0.01,Wunderground v.1.15,2013-09-23 00:57:00,
2013-09-22 21:02:00,51.7,50.0,29.92,NNW,338,0.0,1.0,94,0.00,,,0.01,Wunderground v.1.15,2013-09-23 01:02:00,
2013-09-22 21:07:00,51.7,50.3,29.92,NW,310,1.0,1.0,95,0.00,,,0.01,Wunderground v.1.15,2013-09-23 01:07:00,
2013-09-22 21:12:00,51.7,50.3,29.93,NW,309,0.0,1.0,95,0.00,,,0.01,Wunderground v.1.15,2013-09-23 01:12:00,
2013-09-22 21:17:00,51.8,50.1,29.93,NW,309,0.0,1.0,94,0.00,,,0.01,Wunderground v.1.15,2013-09-23 01:17:00,
2013-09-22 21:22:00,51.8,50.1,29.93,NNW,347,1.0,3.0,94,0.00,,,0.01,Wunderground v.1.15,2013-09-23 01:22:00,
2013-09-22 21:27:00,51.8,50.1,29.93,NNW,346,2.0,6.0,94,0.00,,,0.01,Wunderground v.1.15,2013-09-23 01:27:00,
2013-09-22 21:32:00,51.7,50.0,29.93,North,360,4.0,4.0,94,0.00,,,0.01,Wunderground v.1.15,2013-09-23 01:32:00,
2013-09-22 21:37:00,51.6,49.9,29.93,WNW,298,1.0,4.0,94,0.00,,,0.01,Wunderground v.1.15,2013-09-23 01:37:00,
2013-09-22 21:42:00,51.4,49.7,29.93,NNW,342,2.0,3.0,94,0.00,,,0.01,Wunderground v.1.15,2013-09-23 01:42:00,
2013-09-22 21:47:00,51.2,49.5,29.93,North,359,0.0,6.0,94,0.00,,,0.01,Wunderground v.1.15,2013-09-23 01:47:00,
2013-09-22 21:52:00,51.0,49.6,29.93,North,11,3.0,5.0,95,0.00,,,0.01,Wunderground v.1.15,2013-09-23 01:52:00,
2013-09-22 21:57:00,50.9,49.5,29.93,NNW,347,1.0,5.0,95,0.00,,,0.01,Wunderground v.1.15,2013-09-23 01:57:00,
2013-09-22 22:02:00,50.7,49.3,29.93,NW,304,0.0,4.0,95,0.00,,,0.01,Wunderground v.1.15,2013-09-23 02:02:00,
2013-09-22 22:07:00,50.5,49.1,29.94,North,352,1.0,5.0,95,0.00,,,0.01,Wunderground v.1.15,2013-09-23 02:07:00,
2013-09-22 22:12:00,50.4,49.3,29.94,NNW,338,0.0,3.0,96,0.00,,,0.01,Wunderground v.1.15,2013-09-23 02:12:00,
2013-09-22 22:17:00,50.3,49.2,29.94,North,360,0.0,3.0,96,0.00,,,0.01,Wunderground v.1.15,2013-09-23 02:17:00,
2013-09-22 22:22:00,50.1,49.0,29.94,North,352,0.0,1.0,96,0.00,,,0.01,Wunderground v.1.15,2013-09-23 02:22:00,
2013-09-22 22:27:00,49.8,48.7,29.94,North,352,0.0,1.0,96,0.00,,,0.01,Wunderground v.1.15,2013-09-23 02:27:00,
2013-09-22 22:32:00,49.6,48.5,29.94,North,352,0.0,1.0,96,0.00,,,0.01,Wunderground v.1.15,2013-09-23 02:32:00,
2013-09-22 22:37:00,49.5,48.7,29.95,North,352,0.0,1.0,97,0.00,,,0.01,Wunderground v.1.15,2013-09-23 02:37:00,
2013-09-22 22:42:00,49.2,48.4,29.95,North,352,0.0,0.0,97,0.00,,,0.01,Wunderground v.1.15,2013-09-23 02:42:00,
2013-09-22 22:47:00,49.3,48.8,29.95,NW,326,0.0,1.0,98,0.00,,,0.01,Wunderground v.1.15,2013-09-23 02:47:00,
2013-09-22 22:52:00,49.4,48.9,29.95,NNW,336,0.0,2.0,98,0.00,,,0.01,Wunderground v.1.15,2013-09-23 02:52:00,
2013-09-22 22:57:00,49.4,48.9,29.95,NNW,336,0.0,2.0,98,0.00,,,0.01,Wunderground v.1.15,2013-09-23 02:57:00,
2013-09-22 23:02:00,49.4,48.9,29.95,NNW,338,0.0,1.0,98,0.00,,,0.01,Wunderground v.1.15,2013-09-23 03:02:00,
2013-09-22 23:07:00,49.5,49.0,29.95,NNW,333,0.0,1.0,98,0.00,,,0.01,Wunderground v.1.15,2013-09-23 03:07:00,
2013-09-22 23:12:00,49.7,49.2,29.95,NNW,333,0.0,0.0,98,0.00,,,0.01,Wunderground v.1.15,2013-09-23 03:12:00,
2013-09-22 23:17:00,49.9,49.4,29.95,NNW,340,0.0,1.0,98,0.00,,,0.01,Wunderground v.1.15,2013-09-23 03:17:00,
2013-09-22 23:22:00,50.0,49.5,29.95,NNW,340,0.0,1.0,98,0.00,,,0.01,Wunderground v.1.15,2013-09-23 03:22:00,
2013-09-22 23:28:00,50.0,49.5,29.95,North,358,0.0,2.0,98,0.00,,,0.01,Wunderground v.1.15,2013-09-23 03:28:00,
2013-09-22 23:33:00,50.0,49.5,29.95,NNW,332,1.0,3.0,98,0.00,,,0.01,Wunderground v.1.15,2013-09-23 03:33:00,
2013-09-22 23:38:00,49.9,49.4,29.95,NNW,342,0.0,3.0,98,0.00,,,0.01,Wunderground v.1.15,2013-09-23 03:38:00,
2013-09-22 23:43:00,49.7,49.2,29.95,NNW,342,0.0,1.0,98,0.00,,,0.01,Wunderground v.1.15,2013-09-23 03:43:00,
2013-09-22 23:48:00,49.6,49.1,29.95,NW,322,0.0,2.0,98,0.00,,,0.01,Wunderground v.1.15,2013-09-23 03:48:00,
2013-09-22 23:53:00,49.6,49.1,29.96,NW,322,0.0,1.0,98,0.00,,,0.01,Wunderground v.1.15,2013-09-23 03:53:00,
2013-09-22 23:58:00,49.5,49.0,29.96,NW,321,0.0,1.0,98,0.00,,,0.01,Wunderground v.1.15,2013-09-23 03:58:00,